Flag for Slovakia Weather past 2 weeks in Prešov, Slovakia

Now
50 °F

Clear.


Feels Like: 47 °F
Forecast: 39 / 70 °F
Wind: 7 mph from Northeast

Location: Kosice - Barca


UV Index: 3 (Moderate)

Visibility: 10 mi


Pressure: 29.95 "Hg

Humidity: 67%

Dew point: 39 °F

Location of PrešovLocation

Historic Weather in Prešov

°F

Prešov temperature yesterday

Maximum temperature yesterday: 55 °F (at 3:30 PM)
Minimum temperature yesterday: 41 °F (at 3:30 AM)
Average temperature yesterday: 48 °F

Past Weeks' High & Low Weather Summary

 TemperatureHumidityPressure
High68 °F (Apr 8, 1:30 PM)100% (Apr 6, 3:00 AM)30.18 "Hg (Apr 6, 3:00 AM)
Low30 °F (Apr 10, 6:00 AM)35% (Apr 9, 5:30 PM)29.68 "Hg (Apr 14, 3:30 PM)
Average49 °F73%29.97 "Hg
* Reported Apr 2 11:00 PM — Apr 17 11:30 PM, Prešov, Weather by CustomWeather, © 2014

Note: Actual official high and low records may vary slightly from our data, if they occured in-between our weather recording intervals... More about our weather records

Advertising

Historic Weather Conditions — Data for Previous 24 hours

 ConditionsComfort  
Time TempWeatherWind HumidityBarometerVisibility
11:30 PM
Apr 17
50 °FClear.6 mph67%29.98 "Hg10 mi
11:00 PM50 °FClear.12 mph67%29.98 "Hg10 mi
10:30 PM50 °FClear.13 mph67%29.98 "Hg10 mi
10:00 PM50 °FClear.14 mph67%29.98 "Hg10 mi
9:30 PM50 °FClear.14 mph67%30.01 "Hg10 mi
9:00 PM50 °FClear.15 mph62%30.01 "Hg10 mi
8:30 PM50 °FClear.14 mph62%30.01 "Hg10 mi
8:00 PM52 °FSunny.16 mph62%30.01 "Hg10 mi
7:00 PM54 °FSunny.20 mph54%30.01 "Hg10 mi
6:30 PM54 °FSunny.20 mph54%30.01 "Hg10 mi
6:00 PM54 °FSunny.20 mph58%30.01 "Hg10 mi
5:30 PM54 °FSunny.18 mph54%30.04 "Hg10 mi
5:00 PM55 °FSunny.20 mph55%30.04 "Hg10 mi
4:30 PM55 °FSunny.21 mph51%30.04 "Hg10 mi
4:00 PM55 °FSunny.23 mph55%30.04 "Hg10 mi
3:30 PM55 °FSunny.23 mph55%30.04 "Hg10 mi
3:00 PM54 °FSunny.23 mph58%30.04 "Hg10 mi
2:30 PM52 °FSunny.22 mph62%30.07 "Hg10 mi
2:00 PM52 °FSunny.20 mph58%30.07 "Hg10 mi
1:30 PM50 °FSunny.21 mph62%30.09 "Hg10 mi
1:00 PM50 °FSunny.22 mph62%30.09 "Hg10 mi
12:30 PM50 °FSunny.21 mph62%30.09 "Hg10 mi
12:00 PM50 °FSunny.22 mph62%30.09 "Hg10 mi
11:30 AM48 °FSunny.26 mph62%30.09 "Hg10 mi
11:00 AM48 °FSunny.28 mph62%30.12 "Hg10 mi
10:30 AM46 °FSunny.26 mph71%30.12 "Hg10 mi
10:00 AM46 °FSunny.24 mph66%30.12 "Hg10 mi
9:30 AM46 °FSunny.25 mph66%30.12 "Hg10 mi
9:00 AM45 °FSunny.26 mph71%30.12 "Hg10 mi
8:30 AM45 °FSunny.26 mph71%30.12 "Hg10 mi
8:00 AM43 °FSunny.24 mph76%30.12 "Hg10 mi
7:30 AM43 °FSunny.28 mph76%30.12 "Hg10 mi
7:00 AM43 °FScattered clouds.24 mph76%30.12 "HgN/A
6:30 AM43 °FPassing clouds.25 mph76%30.12 "HgN/A
6:00 AM41 °FPassing clouds.28 mph81%30.12 "HgN/A
5:30 AM41 °FPassing clouds.23 mph81%30.15 "HgN/A
5:00 AM41 °FPassing clouds.23 mph81%30.12 "HgN/A
4:30 AM41 °FClear.20 mph76%30.12 "Hg10 mi
4:00 AM41 °FClear.22 mph76%30.12 "Hg10 mi
3:30 AM41 °FClear.23 mph76%30.15 "Hg10 mi
3:00 AM43 °FClear.21 mph71%30.15 "Hg10 mi
2:30 AM43 °FClear.20 mph71%30.15 "Hg10 mi
2:00 AM43 °FPassing clouds.21 mph71%30.18 "HgN/A
1:30 AM43 °FClear.21 mph71%30.18 "Hg10 mi
1:00 AM43 °FClear.18 mph71%30.18 "Hg10 mi
12:30 AM43 °FPassing clouds.17 mph76%30.18 "HgN/A
12:00 AM45 °FPassing clouds.16 mph71%30.18 "HgN/A
Weather by CustomWeather, © 2014

See weather overview